Home   Weather   Prince George   Past weeks

Flag for Canada Past Weather in Prince George, British Columbia, Canada — Yesterday and Last 2 Weeks

Now
70 °F

Sunny.


Feels Like: 70 °F
Forecast: 52 / 78 °F
Wind: 2 mph from North

Location: Prince George

Current Time: Jul 26, 2017 at 11:56:25 am

Latest Report: Jul 26, 2017 at 11:00 am


Visibility: 9 mi

Pressure: 29.99 "Hg (28.06 "Hg at 573m altitude)

Humidity: 46%

Dew Point: 48 °F

Location of Prince GeorgeLocation

Past Weather in Prince George — Graph

°F

Prince George Temperature Yesterday

Maximum temperature yesterday: 81 °F (at 3:00 pm)
Minimum temperature yesterday: 41 °F (at 4:00 am)
Average temperature yesterday: 63 °F

High & Low Weather Summary for the Past Weeks

 TemperatureHumidityPressure
High81 °F (Jul 25, 3:00 pm)100% (Jul 12, 4:00 am)30.18 "Hg (Jul 12, 4:00 am)
Low36 °F (Jul 18, 5:10 am)23% (Jul 25, 5:00 pm)29.89 "Hg (Jul 19, 7:00 pm)
Average58 °F68%30.04 "Hg
* Reported Jul 11 10:00 am — Jul 26 10:00 am, Prince George. Weather by CustomWeather, © 2017

Note: Actual official high and low records may vary slightly from our data, if they occured in-between our weather recording intervals... More about our weather records

Advertising

Prince George Weather History for the Previous 24 Hours

Scroll right to see more
 ConditionsComfort  
Time TempWeatherWind HumidityBarometerVisibility
10:00 am
Wed, Jul 26
66 °FSunny.3 mph56%29.99 "Hg9 mi
9:00 am61 °FPassing clouds.2 mph68%30.00 "Hg9 mi
8:00 am57 °FPassing clouds.2 mph72%29.99 "Hg9 mi
7:00 am54 °FPassing clouds.3 mph77%29.98 "Hg9 mi
6:00 am52 °FPassing clouds.2 mph77%29.99 "Hg9 mi
5:00 am48 °FPassing clouds.5 mph87%29.99 "Hg9 mi
4:00 am46 °FClear.3 mph100%29.98 "Hg9 mi
3:00 am48 °FClear.2 mph82%29.97 "Hg9 mi
2:00 am48 °FClear.2 mph87%29.97 "Hg9 mi
1:00 am52 °FClear.No wind82%29.97 "Hg9 mi
12:00 am55 °FClear.No wind77%29.97 "Hg9 mi
11:00 pm
Tue, Jul 25
55 °FClear.5 mph72%29.97 "Hg9 mi
10:00 pm61 °FClear.2 mph63%29.97 "Hg9 mi
9:00 pm66 °FSunny.No wind64%29.96 "Hg9 mi
8:00 pm77 °FSunny.3 mph30%29.96 "Hg9 mi
7:00 pm81 °FSunny.6 mph23%29.97 "Hg9 mi
6:00 pm81 °FSunny.7 mph23%29.99 "Hg9 mi
5:00 pm81 °FSunny.6 mph23%30.01 "Hg9 mi
4:00 pm81 °FSunny.3 mph24%30.02 "Hg9 mi
3:00 pm81 °FSunny.9 mph24%30.03 "Hg9 mi
2:00 pm79 °FSunny.9 mph26%30.04 "Hg9 mi
1:00 pm75 °FSunny.2 mph31%30.06 "Hg9 mi
12:00 pm73 °FSunny.6 mph33%30.07 "Hg9 mi
11:00 am70 °FSunny.No wind43%30.09 "Hg9 mi
Weather by CustomWeather, © 2017

See weather overviewHow to use our weather pages